{"data":{"norad_id":66230,"epoch":"2026-09-20T13:12:50.575104Z","epoch_age_seconds":92319,"freshness":"FRESH","line1":"1 66230U 25244AA  26263.55058536  .00018760  00000+0  56479-3 0  9995","line2":"2 66230  53.1611  43.3864 0001409 127.8198 232.2933 15.34410344 51519","mean_motion":15.34410344,"eccentricity":0.0001409,"inclination_deg":53.1611,"raan_deg":43.3864,"arg_perigee_deg":127.8198,"mean_anomaly_deg":232.2933,"bstar":0.00056479,"rev_number":5151,"period_min":93.847125420578,"perigee_km":461.70862577396,"apogee_km":463.63636588989,"semimajor_km":6840.8094958319,"source":"CELESTRAK","updated_at":"2026-09-21T09:00:35.844676Z"}}